Previsão horária em Abodim

Hoje, 18 Abril, Domingo

Tempo Temperatura Precipitação Vento Pressão Humidade
00:00 +10°C° 1.5 mm 2 m/s 745 mmHg 88%
01:00 +9°C° 0 mm 2 m/s 745 mmHg 89%
02:00 +9°C° 0 mm 2 m/s 745 mmHg 90%
03:00 +9°C° 0 mm 3 m/s 745 mmHg 92%
04:00 +9°C° 0.1 mm 2 m/s 744 mmHg 93%
05:00 +8°C° 0.1 mm 2 m/s 744 mmHg 93%
06:00 +8°C° 0.1 mm 2 m/s 744 mmHg 94%
07:00 +9°C° 0.1 mm 2 m/s 744 mmHg 91%
08:00 +9°C° 0.1 mm 2 m/s 744 mmHg 89%
09:00 +9°C° 0 mm 2 m/s 745 mmHg 85%
10:00 +10°C° 0 mm 2 m/s 745 mmHg 81%
11:00 +12°C° 0 mm 2 m/s 745 mmHg 76%
12:00 +13°C° 0 mm 2 m/s 745 mmHg 72%
13:00 +12°C° 0.1 mm 3 m/s 745 mmHg 69%
14:00 +13°C° 0.1 mm 3 m/s 745 mmHg 67%
15:00 +13°C° 0.1 mm 3 m/s 745 mmHg 64%
16:00 +12°C° 0 mm 3 m/s 745 mmHg 68%
17:00 +12°C° 0 mm 3 m/s 745 mmHg 71%
18:00 +11°C° 0 mm 3 m/s 745 mmHg 75%
19:00 +10°C° 0 mm 3 m/s 745 mmHg 78%
20:00 +10°C° 0 mm 3 m/s 745 mmHg 81%
21:00 +9°C° 0 mm 3 m/s 745 mmHg 83%
22:00 +9°C° 0 mm 3 m/s 745 mmHg 83%
23:00 +8°C° 0 mm 3 m/s 745 mmHg 83%

Amanhã, 19 Abril, Segunda-feira

Tempo Temperatura Precipitação Vento Pressão Humidade
00:00 +8°C° 0 mm 2 m/s 744 mmHg 83%
01:00 +8°C° 0 mm 3 m/s 744 mmHg 81%
02:00 +8°C° 0 mm 3 m/s 744 mmHg 80%
03:00 +8°C° 0 mm 3 m/s 744 mmHg 78%
04:00 +8°C° 0 mm 3 m/s 744 mmHg 78%
05:00 +7°C° 0 mm 4 m/s 744 mmHg 78%
06:00 +6°C° 0 mm 4 m/s 744 mmHg 78%
07:00 +6°C° 0 mm 5 m/s 744 mmHg 78%
08:00 +6°C° 0 mm 5 m/s 745 mmHg 79%
09:00 +5°C° 0 mm 6 m/s 745 mmHg 79%
10:00 +5°C° 0.2 mm 6 m/s 745 mmHg 79%
11:00 +5°C° 0.2 mm 6 m/s 745 mmHg 78%
12:00 +5°C° 0.2 mm 6 m/s 745 mmHg 78%
13:00 +6°C° 0 mm 5 m/s 745 mmHg 76%
14:00 +7°C° 0 mm 5 m/s 745 mmHg 75%
15:00 +7°C° 0 mm 5 m/s 745 mmHg 73%
16:00 +7°C° 0 mm 5 m/s 745 mmHg 75%
17:00 +7°C° 0 mm 5 m/s 745 mmHg 77%
18:00 +7°C° 0 mm 6 m/s 745 mmHg 79%
19:00 +5°C° 0 mm 6 m/s 745 mmHg 82%
20:00 +5°C° 0 mm 7 m/s 745 mmHg 85%
21:00 +5°C° 0 mm 7 m/s 745 mmHg 88%
22:00 +4°C° 0.3 mm 7 m/s 746 mmHg 89%
23:00 +4°C° 0.3 mm 7 m/s 746 mmHg 89%

Depois de amanhã, 20 Abril, Terça-feira

Tempo Temperatura Precipitação Vento Pressão Humidade
00:00 +3°C° 0.3 mm 7 m/s 746 mmHg 90%
01:00 +3°C° 0.4 mm 7 m/s 746 mmHg 90%
02:00 +2°C° 0.4 mm 7 m/s 746 mmHg 91%
03:00 +2°C° 0.4 mm 7 m/s 746 mmHg 91%
04:00 +2°C° 0.1 mm 7 m/s 746 mmHg 89%
05:00 +1°C° 0.1 mm 8 m/s 747 mmHg 87%
06:00 +1°C° 0.1 mm 8 m/s 747 mmHg 85%
07:00 +1°C° 0 mm 8 m/s 747 mmHg 82%
08:00 +1°C° 0 mm 8 m/s 747 mmHg 79%
09:00 +1°C° 0 mm 9 m/s 747 mmHg 76%
10:00 0°C° 0 mm 9 m/s 747 mmHg 76%
11:00 0°C° 0 mm 9 m/s 747 mmHg 75%
12:00 0°C° 0 mm 9 m/s 747 mmHg 75%
13:00 +1°C° 0 mm 9 m/s 747 mmHg 73%
14:00 +1°C° 0 mm 9 m/s 747 mmHg 72%
15:00 +2°C° 0 mm 10 m/s 746 mmHg 70%
16:00 +2°C° 0 mm 10 m/s 746 mmHg 70%
17:00 +3°C° 0 mm 10 m/s 745 mmHg 70%
18:00 +3°C° 0 mm 10 m/s 744 mmHg 70%
19:00 +3°C° 0.8 mm 10 m/s 744 mmHg 71%
20:00 +3°C° 0.8 mm 11 m/s 744 mmHg 73%
21:00 +3°C° 0.8 mm 11 m/s 743 mmHg 74%
22:00 +3°C° 1.1 mm 11 m/s 743 mmHg 78%
23:00 +2°C° 1.1 mm 11 m/s 743 mmHg 82%

21 Abril, Quarta-feira

Tempo Temperatura Precipitação Vento Pressão Humidade
00:00 +2°C° 1.1 mm 11 m/s 742 mmHg 85%
01:00 +2°C° 1.6 mm 11 m/s 742 mmHg 86%
02:00 0°C° 1.6 mm 12 m/s 742 mmHg 87%
03:00 0°C° 1.6 mm 12 m/s 742 mmHg 87%
04:00 0°C° 0.4 mm 12 m/s 741 mmHg 88%
05:00 +1°C° 0.4 mm 11 m/s 741 mmHg 90%
06:00 -1°C° 0.4 mm 11 m/s 741 mmHg 91%
07:00 +1°C° 0.1 mm 11 m/s 741 mmHg 92%
08:00 +1°C° 0.1 mm 10 m/s 741 mmHg 92%
09:00 +1°C° 0.1 mm 10 m/s 742 mmHg 93%
10:00 +1°C° 0.2 mm 10 m/s 742 mmHg 93%
11:00 +2°C° 0.2 mm 10 m/s 742 mmHg 93%
12:00 +2°C° 0.2 mm 10 m/s 742 mmHg 93%
13:00 +2°C° 0 mm 9 m/s 742 mmHg 93%
14:00 +2°C° 0 mm 9 m/s 742 mmHg 93%
15:00 +2°C° 0 mm 8 m/s 742 mmHg 93%
16:00 +4°C° 0.1 mm 7 m/s 743 mmHg 94%
17:00 +4°C° 0.1 mm 6 m/s 743 mmHg 95%
18:00 +5°C° 0.1 mm 5 m/s 744 mmHg 95%
19:00 +5°C° 0 mm 4 m/s 744 mmHg 94%
20:00 +5°C° 0 mm 4 m/s 745 mmHg 94%
21:00 +5°C° 0 mm 3 m/s 745 mmHg 93%
22:00 +6°C° 0 mm 2 m/s 746 mmHg 92%
23:00 +6°C° 0 mm 2 m/s 746 mmHg 91%

22 Abril, Quinta-feira

Tempo Temperatura Precipitação Vento Pressão Humidade
00:00 +5°C° 0 mm 2 m/s 746 mmHg 90%
01:00 +5°C° 0 mm 2 m/s 746 mmHg 89%
02:00 +5°C° 0 mm 2 m/s 747 mmHg 88%
03:00 +6°C° 0 mm 2 m/s 747 mmHg 87%
04:00 +6°C° 0 mm 2 m/s 747 mmHg 88%
05:00 +6°C° 0 mm 2 m/s 747 mmHg 88%
06:00 +6°C° 0 mm 2 m/s 748 mmHg 89%
07:00 +7°C° 0 mm 3 m/s 748 mmHg 82%
08:00 +8°C° 0 mm 3 m/s 748 mmHg 76%
09:00 +10°C° 0 mm 4 m/s 748 mmHg 70%
10:00 +10°C° 0 mm 4 m/s 748 mmHg 67%
11:00 +11°C° 0 mm 4 m/s 748 mmHg 64%
12:00 +12°C° 0 mm 4 m/s 748 mmHg 61%
13:00 +12°C° 0.1 mm 4 m/s 748 mmHg 61%
14:00 +12°C° 0.1 mm 4 m/s 748 mmHg 62%
15:00 +13°C° 0.1 mm 4 m/s 748 mmHg 63%
16:00 +12°C° 0.1 mm 4 m/s 748 mmHg 66%
17:00 +12°C° 0.1 mm 4 m/s 748 mmHg 68%
18:00 +12°C° 0.1 mm 4 m/s 748 mmHg 71%
19:00 +10°C° 0.3 mm 5 m/s 748 mmHg 78%
20:00 +9°C° 0.3 mm 5 m/s 748 mmHg 85%
21:00 +8°C° 0.3 mm 6 m/s 748 mmHg 92%
22:00 +7°C° 0.2 mm 6 m/s 748 mmHg 92%
23:00 +7°C° 0.2 mm 5 m/s 748 mmHg 93%

23 Abril, Sexta-feira

Tempo Temperatura Precipitação Vento Pressão Humidade
00:00 +7°C° 0.2 mm 5 m/s 748 mmHg 93%
01:00 +6°C° 0 mm 5 m/s 748 mmHg 93%
02:00 +6°C° 0 mm 5 m/s 748 mmHg 94%
03:00 +6°C° 0 mm 5 m/s 748 mmHg 94%
04:00 +6°C° 0 mm 4 m/s 748 mmHg 94%
05:00 +6°C° 0 mm 4 m/s 748 mmHg 94%
06:00 +6°C° 0 mm 4 m/s 748 mmHg 94%
07:00 +6°C° 0 mm 4 m/s 748 mmHg 92%
08:00 +7°C° 0 mm 5 m/s 748 mmHg 89%
09:00 +7°C° 0 mm 5 m/s 748 mmHg 87%
10:00 +8°C° 0 mm 4 m/s 748 mmHg 83%
11:00 +10°C° 0 mm 4 m/s 747 mmHg 78%
12:00 +11°C° 0 mm 4 m/s 747 mmHg 73%
13:00 +11°C° 0 mm 4 m/s 747 mmHg 72%
14:00 +11°C° 0 mm 3 m/s 746 mmHg 71%
15:00 +11°C° 0 mm 3 m/s 746 mmHg 70%
16:00 +11°C° 0 mm 3 m/s 746 mmHg 71%
17:00 +11°C° 0 mm 3 m/s 746 mmHg 72%
18:00 +10°C° 0 mm 3 m/s 746 mmHg 73%
19:00 +10°C° 0 mm 3 m/s 745 mmHg 77%
20:00 +8°C° 0 mm 4 m/s 745 mmHg 81%
21:00 +7°C° 0 mm 4 m/s 745 mmHg 85%
22:00 +8°C° 0 mm 3 m/s 744 mmHg 87%
23:00 +8°C° 0 mm 3 m/s 744 mmHg 88%
Mostrar mais